Location: Antioch Baptist Church
(32.6696°N, 85.7327°W)
Time: 11:42:22
(UTC+00:00)

Cosmos 1603 - Pass Details

Date: 14 July 2020
Orbit: 830 x 861 km, 71.0° (Epoch: 08 August)

Event Time Altitude Azimuth Distance (km) Brightness Sun altitude
Exits shadow 04:32:00 48° 13° (NNE) 1,094 4.4 -32.7°
Drops below altitude 10° 04:36:04 10° 19° (NNE) 2,484 6.7 -33.0°
Sets 04:38:32 0° 20° (NNE) 3,427 7.5 -33.2°
